Location: Unspecified
(0.0000°N, 0.0000°E)
Time: 20:14:34
(UTC+00:00)

Hubble Space Telescope - Visible Passes

Search period start: 13 April 2021 00:00
Search period end: 23 April 2021 00:00
Orbit: 535 x 539 km, 28.5° (Epoch: 13 April)

Date Brightness Start Highest point End Pass type
(mag) Time Alt. Az. Time Alt. Az. Time Alt. Az.
13 Apr 1.4 18:33:39 10° SW 18:37:30 38° SSE 18:40:54 13° E visible
13 Apr 3.5 20:14:57 10° W 20:16:16 18° W 20:16:16 18° W visible
14 Apr 1.0 18:22:34 10° SW 18:26:37 54° SSE 18:30:39 10° ENE visible
14 Apr 3.1 20:04:28 10° W 20:06:49 21° NW 20:06:49 21° NW visible
15 Apr 3.6 04:38:30 10° N 04:39:53 11° NNE 04:41:15 10° NE visible
15 Apr 3.2 19:54:12 10° WNW 19:56:53 17° NNW 19:57:23 16° NNW visible
16 Apr 3.4 04:26:33 10° N 04:29:03 15° NNE 04:31:32 10° ENE visible
16 Apr 3.5 19:44:17 10° NW 19:46:03 12° NNW 19:47:49 10° N visible
17 Apr 2.9 04:16:43 17° N 04:18:12 21° NNE 04:21:19 10° E visible
18 Apr 2.4 04:07:14 28° NNE 04:07:19 28° NNE 04:10:54 10° E visible
19 Apr 2.6 03:57:47 30° ENE 03:57:47 30° ENE 04:00:18 10° E visible
20 Apr 3.3 03:48:20 19° ESE 03:48:20 19° ESE 03:49:34 10° ESE visible
20 Apr 2.2 05:23:42 11° WSW 05:26:40 22° SSW 05:29:54 10° SSE visible
21 Apr 2.6 05:14:11 13° SW 05:15:49 16° SSW 05:18:25 10° SSE visible
22 Apr 2.9 05:04:35 12° SSW 05:04:59 12° SSW 05:06:35 10° S visible
